This is the latest recevied weather packets stored in our database for station/object KD4KKF. If no packets are shown the sender has not sent any weather packets the latest 10 day(s).
| Time | Temp. | Humidity | Pressure | Rain* | Wind** | Luminosity | Snow |
|---|---|---|---|---|---|---|---|
| 1777466268 | 18.33° C | 99% | 1013.5 hPa | 0 mm | - | 117 W/m² | - |
| 1777465965 | 18.33° C | 99% | 1013.5 hPa | 0 mm | - | 87 W/m² | - |
| 1777465661 | 18.33° C | 99% | 1013.4 hPa | 0 mm | - | 55 W/m² | - |
| 1777465357 | 17.78° C | 99% | 1013.5 hPa | 0 mm | - | 49 W/m² | - |
| 1777465056 | 17.78° C | 99% | 1013.5 hPa | 0 mm | - | 32 W/m² | - |
| 1777464751 | 17.78° C | 99% | 1013.6 hPa | 0 mm | - | 9 W/m² | - |
| 1777464448 | 17.78° C | 99% | 1013.4 hPa | 0 mm | - | 7 W/m² | - |
| 1777464143 | 17.78° C | 99% | 1013.2 hPa | 0 mm | - | 4 W/m² | - |
| 1777463843 | 17.78° C | 99% | 1013.1 hPa | 0 mm | - | 3 W/m² | - |
| 1777463539 | 17.78° C | 99% | 1013.2 hPa | 0 mm | - | 2 W/m² | - |
| 1777463234 | 17.78° C | 99% | 1013 hPa | 0 mm | - | 5 W/m² | - |
| 1777462930 | 17.78° C | 99% | 1013 hPa | 0 mm | - | 6 W/m² | - |
| 1777462627 | 17.78° C | 99% | 1013.2 hPa | 0 mm | - | 14 W/m² | - |
| 1777462321 | 17.78° C | 99% | 1012.8 hPa | 0 mm | - | 6 W/m² | - |
| 1777462018 | 17.78° C | 99% | 1013.1 hPa | 0 mm | - | 1 W/m² | - |
| 1777461715 | 17.78° C | 99% | 1012.8 hPa | 0 mm | - | 0 W/m² | - |
| 1777461415 | 17.78° C | 99% | 1012.8 hPa | 0 mm | - | 0 W/m² | - |
| 1777461112 | 17.78° C | 99% | 1012.8 hPa | 0 mm | - | 0 W/m² | - |
| 1777460807 | 17.78° C | 99% | 1013.2 hPa | 0 mm | - | 0 W/m² | - |
| 1777460503 | 17.78° C | 99% | 1013 hPa | 0 mm | - | 0 W/m² | - |
| 1777460199 | 17.78° C | 99% | 1012.4 hPa | 0 mm | - | 0 W/m² | - |
| 1777459896 | 17.78° C | 99% | 1012.2 hPa | 0 mm | - | 0 W/m² | - |
| 1777459594 | 17.78° C | 99% | 1012.6 hPa | 0 mm | - | 0 W/m² | - |
| 1777459291 | 17.22° C | 99% | 1013 hPa | 0 mm | - | 0 W/m² | - |
| 1777458989 | 17.22° C | 99% | 1013.1 hPa | 0 mm | - | 0 W/m² | - |
* Rain latest hour (hover to see other rain measurements)
** Current wind speed in m/s (hover to see current wind gust speed)